Weather History for Jackson, WY

Change the Weather History Date:

Friday, February 15, 2013

  Actual Average Record
Temperature  
Mean Temperature 24 °F -  
Max Temperature 33 °F 32 °F 47 °F (1991)
Min Temperature 15 °F 5 °F -24 °F (1989)
Degree Days  
Heating Degree Days 41    
Moisture  
Dew Point 16 °F    
Average Humidity 66    
Maximum Humidity 86    
Minimum Humidity 48    
Precipitation  
Precipitation 0.00 in - - ()
Sea Level Pressure  
Sea Level Pressure 30.32 in    
Wind  
Wind Speed 10 mph (West)    
Max Wind Speed 21 mph    
Max Gust Speed 32 mph    
Visibility 10 miles    
Events      
Averages and records for this station are not official NWS values.
T = Trace of Precipitation, MM = Missing Value Source: NWS Daily Summary

Daily Weather History Graph

Daily Weather History Graph

Search for Another Location

Airport:

Trip Planner

Search our weather history database for the weather conditions in past years. The results will help you decide how hot, cold, wet, or windy it might be!

Date:

Astronomy

Feb. 15, 2013 Rise Set
Actual Time 7:20 AM MST 5:53 PM MST
Civil Twilight 6:51 AM MST 6:23 PM MST
Nautical Twilight 6:18 AM MST 6:56 PM MST
Astronomical Twilight 5:44 AM MST 7:29 PM MST
Moon 9:46 AM MST (2/15) No Moon Set
Length of Visible Light 11h 31m
Length of Day
10h 32m
Waxing Crescent, 31% of the Moon is Illuminated
Feb 15
Waxing Crescent
Feb 17
First Quarter
Feb 25
Full
Mar 4
Last Quarter
Mar 11
New

Hourly Weather History & Observations

Time (MST) Temp. Windchill Dew Point Humidity Pressure Visibility Wind Dir Wind Speed Gust Speed Precip Events Conditions
12:15 AM 28.4 °F 19.7 °F 19.4 °F 69% 30.28 in 10.0 mi South 9.2 mph - N/A   Overcast
12:35 AM 28.4 °F - 17.6 °F 64% 30.28 in 10.0 mi Calm Calm - N/A   Overcast
1:15 AM 28.4 °F 18.0 °F 19.4 °F 69% 30.27 in 10.0 mi South 12.7 mph 17.3 mph N/A   Mostly Cloudy
1:35 AM 28.4 °F 18.0 °F 17.6 °F 64% 30.27 in 10.0 mi West 12.7 mph 23.0 mph N/A   Mostly Cloudy
1:55 AM 26.6 °F 20.0 °F 17.6 °F 69% 30.28 in 10.0 mi West 5.8 mph - N/A   Scattered Clouds
2:15 AM 28.4 °F 18.0 °F 17.6 °F 64% 30.29 in 10.0 mi NW 12.7 mph 18.4 mph N/A   Scattered Clouds
2:35 AM 28.4 °F 18.0 °F 15.8 °F 59% 30.28 in 10.0 mi West 12.7 mph 20.7 mph N/A   Partly Cloudy
2:55 AM 28.4 °F 17.0 °F 15.8 °F 59% 30.28 in 10.0 mi West 15.0 mph 21.9 mph N/A   Scattered Clouds
3:15 AM 28.4 °F 16.6 °F 17.6 °F 64% 30.27 in 10.0 mi West 16.1 mph 21.9 mph N/A   Scattered Clouds
3:35 AM 28.4 °F 16.6 °F 17.6 °F 64% 30.27 in 10.0 mi West 16.1 mph 21.9 mph N/A   Mostly Cloudy
3:55 AM 26.6 °F 15.2 °F 15.8 °F 64% 30.28 in 10.0 mi West 13.8 mph 29.9 mph N/A   Scattered Clouds
4:15 AM 26.6 °F 12.7 °F 15.8 °F 64% 30.27 in 9.0 mi WNW 20.7 mph 32.2 mph N/A   Partly Cloudy
4:35 AM 26.6 °F 13.1 °F 15.8 °F 64% 30.28 in 10.0 mi West 19.6 mph 26.5 mph N/A   Partly Cloudy
4:55 AM 26.6 °F 13.8 °F 15.8 °F 64% 30.28 in 10.0 mi West 17.3 mph 25.3 mph N/A   Scattered Clouds
5:15 AM 26.6 °F 15.2 °F 15.8 °F 64% 30.30 in 10.0 mi WSW 13.8 mph 17.3 mph N/A   Mostly Cloudy
5:35 AM 24.8 °F 14.6 °F 17.6 °F 74% 30.30 in 10.0 mi West 10.4 mph 17.3 mph N/A   Mostly Cloudy
5:55 AM 24.8 °F 16.1 °F 15.8 °F 69% 30.31 in 10.0 mi SW 8.1 mph - N/A   Partly Cloudy
6:15 AM 24.8 °F 16.1 °F 15.8 °F 69% 30.32 in 10.0 mi WSW 8.1 mph 18.4 mph N/A   Clear
6:35 AM 24.8 °F 16.9 °F 15.8 °F 69% 30.32 in 10.0 mi NW 6.9 mph 19.6 mph N/A   Clear
6:51 AM 15.8 °F 4.2 °F 12.2 °F 86% 30.34 in 10.0 mi North 9.2 mph - N/A   Scattered Clouds
7:51 AM 15.8 °F 6.1 °F 10.4 °F 79% 30.36 in 10.0 mi North 6.9 mph - N/A   Scattered Clouds
8:51 AM 17.6 °F 12.3 °F 12.2 °F 79% 30.37 in 10.0 mi ENE 3.5 mph - N/A   Partly Cloudy
9:05 AM 17.6 °F 8.2 °F 12.2 °F 79% 30.38 in 10.0 mi NNE 6.9 mph - N/A   Partly Cloudy
10:51 AM 24.8 °F 19.1 °F 15.8 °F 69% 30.39 in 10.0 mi NNE 4.6 mph - N/A   Partly Cloudy
11:53 AM 28.4 °F 22.2 °F 17.6 °F 64% 30.39 in 10.0 mi ENE 5.8 mph - N/A   Partly Cloudy
12:57 PM 30.2 °F 24.3 °F 17.6 °F 60% 30.38 in 10.0 mi East 5.8 mph - N/A   Scattered Clouds
1:55 PM 33.8 °F 24.8 °F 17.6 °F 52% 30.35 in 10.0 mi SE 12.7 mph - N/A   Clear
2:51 PM 33.8 °F 28.6 °F 17.6 °F 52% 30.34 in 10.0 mi East 5.8 mph - N/A   Clear
3:52 PM 33.8 °F - 15.8 °F 48% 30.34 in 10.0 mi Calm Calm - N/A   Clear
4:53 PM 33.8 °F 24.8 °F 17.6 °F 52% 30.34 in 10.0 mi South 12.7 mph - N/A   Clear
5:53 PM 28.4 °F 18.5 °F 19.4 °F 69% 30.34 in 10.0 mi SSW 11.5 mph 18.4 mph N/A   Clear
6:51 PM 28.4 °F 21.2 °F 17.6 °F 64% 30.35 in 10.0 mi SSW 6.9 mph - N/A   Clear
7:51 PM 26.6 °F - 19.4 °F 74% 30.36 in 10.0 mi Calm Calm - N/A   Clear
8:52 PM 21.2 °F 10.9 °F 15.8 °F 80% 30.37 in 10.0 mi North 9.2 mph - N/A   Clear